Location: W�rzburg
(49.7529°N, 9.8822°E)
Time: 12:25:54
(UTC+02:00)

ISS - Pass Details

Date: 07 January 2018
Orbit: 402 x 408 km, 51.6° (Epoch: 20 July)

Event Time Altitude Azimuth Distance (km) Brightness Sun altitude
Exits shadow 04:39:26 - 73° (ENE) 1,695 0.2 -34.1°
Enters shadow 05:36:18 -66° 265° (W) 12,127 3.6 -24.9°
Maximum altitude 06:12:25 61° 4° (N) 477 -3.6 -19.1°
